Tracking 19827 objects as of 21-Aug-2019
HD Live streaming from Space Station
objects crossing your sky now

COSMOS 2133

Track COSMOS 2133 now!
COSMOS 2133 is classified as:


NORAD ID: 21111
Int'l Code: 1991-010A
Perigee: 35,773.5 km
Apogee: 35,806.4 km
Inclination: 14.7 °
Period: 1,435.9 minutes
Semi major axis: 42160 km
RCS: 12.1 m2 (large)
Launch date: February 14, 1991
Source: Commonwealth of Independent States (former USSR) (CIS)
Launch site: TYURATAM MISSILE AND SPACE COMPLEX (TTMTR)
aabbcc
Your satellite tracking list
Your tracking list is empty




NASA's NSSDC Master Catalog

Two Line Element Set (TLE):
1 21111U 91010A   19232.85846215 -.00000122 +00000-0 +00000-0 0  9999
2 21111 014.6942 002.5053 0003901 100.2685 251.2001 01.00285335104445
Source of the keplerian elements: AFSPC